�������l�o���
Date,Time,MP-1(��Sv/h),MP-2(��Sv/h),MP-3(��Sv/h),MP-4(��Sv/h),MP-5(��Sv/h),MP-6(��Sv/h),MP-7(��Sv/h),MP-8(��Sv/h),����,����(m/s),���J
2020/08/26,00:00,0.710,1.018,0.643,1.248,0.904,0.400,0.697,0.652,��쓌,1.1,��
2020/08/26,00:10,0.709,1.019,0.643,1.248,0.901,0.399,0.697,0.652,�쐼,0.9,��
2020/08/26,00:20,0.711,1.020,0.643,1.250,0.904,0.400,0.697,0.653,��쐼,0.9,��
2020/08/26,00:30,0.711,1.020,0.644,1.246,0.906,0.398,0.696,0.652,��쐼,0.6,��
2020/08/26,00:40,0.712,1.018,0.644,1.247,0.904,0.398,0.696,0.652,-,CALM,��
2020/08/26,00:50,0.710,1.018,0.642,1.246,0.904,0.399,0.697,0.653,��,0.6,��
2020/08/26,01:00,0.710,1.017,0.644,1.248,0.903,0.398,0.697,0.654,��,0.6,��
2020/08/26,01:10,0.711,1.020,0.643,1.246,0.903,0.398,0.697,0.650,��,0.9,��
2020/08/26,01:20,0.713,1.017,0.643,1.249,0.903,0.398,0.697,0.653,�쓌,0.6,��
2020/08/26,01:30,0.711,1.017,0.642,1.247,0.904,0.399,0.696,0.651,��쓌,0.6,��
2020/08/26,01:40,0.711,1.016,0.645,1.248,0.904,0.398,0.697,0.652,��,1.1,��
2020/08/26,01:50,0.710,1.018,0.642,1.247,0.904,0.397,0.698,0.651,��쓌,1.5,��
2020/08/26,02:00,0.711,1.018,0.642,1.247,0.903,0.398,0.697,0.650,��쓌,1.2,��
2020/08/26,02:10,0.711,1.018,0.641,1.247,0.904,0.397,0.696,0.652,��쓌,1.4,��
2020/08/26,02:20,0.711,1.018,0.643,1.245,0.902,0.398,0.697,0.652,��쐼,0.6,��
2020/08/26,02:30,0.711,1.018,0.644,1.247,0.904,0.399,0.696,0.651,��쐼,1.1,��
2020/08/26,02:40,0.711,1.016,0.641,1.250,0.905,0.397,0.698,0.651,-,CALM,��
2020/08/26,02:50,0.711,1.017,0.642,1.249,0.903,0.398,0.698,0.652,�k��,1.1,��
2020/08/26,03:00,0.710,1.015,0.642,1.247,0.904,0.399,0.696,0.651,�k�k��,1.2,��
2020/08/26,03:10,0.711,1.018,0.643,1.247,0.902,0.397,0.698,0.653,-,CALM,��
2020/08/26,03:20,0.711,1.016,0.643,1.247,0.904,0.398,0.697,0.653,-,CALM,��
2020/08/26,03:30,0.710,1.016,0.643,1.246,0.903,0.398,0.698,0.652,-,CALM,��
2020/08/26,03:40,0.710,1.016,0.643,1.244,0.902,0.398,0.697,0.651,�쓌,0.6,��
2020/08/26,03:50,0.709,1.017,0.642,1.245,0.902,0.398,0.698,0.652,��쓌,1.2,��
2020/08/26,04:00,0.711,1.018,0.641,1.245,0.901,0.398,0.697,0.652,��쓌,0.6,��
2020/08/26,04:10,0.710,1.017,0.640,1.246,0.904,0.396,0.697,0.651,��,0.6,��
2020/08/26,04:20,0.711,1.017,0.643,1.246,0.902,0.399,0.699,0.652,��,0.6,��
2020/08/26,04:30,0.710,1.017,0.642,1.247,0.902,0.398,0.698,0.652,��,0.8,��
2020/08/26,04:40,0.709,1.017,0.642,1.244,0.903,0.397,0.697,0.652,-,CALM,��
2020/08/26,04:50,0.709,1.017,0.642,1.244,0.901,0.397,0.696,0.653,-,CALM,��
2020/08/26,05:00,0.712,1.017,0.642,1.247,0.902,0.398,0.698,0.652,-,CALM,��
2020/08/26,05:10,0.710,1.016,0.643,1.245,0.902,0.398,0.696,0.652,��쓌,1.1,��
2020/08/26,05:20,0.711,1.016,0.641,1.248,0.902,0.397,0.697,0.653,��쓌,0.8,��
2020/08/26,05:30,0.711,1.016,0.641,1.245,0.902,0.398,0.697,0.653,-,CALM,��
2020/08/26,05:40,0.711,1.017,0.642,1.247,0.902,0.397,0.698,0.652,-,CALM,��
2020/08/26,05:50,0.712,1.015,0.641,1.248,0.903,0.398,0.698,0.652,-,CALM,��
2020/08/26,06:00,0.710,1.016,0.644,1.245,0.902,0.397,0.697,0.652,-,CALM,��
2020/08/26,06:10,0.710,1.017,0.643,1.250,0.902,0.398,0.697,0.653,�k��,0.6,��
2020/08/26,06:20,0.711,1.016,0.644,1.247,0.903,0.398,0.697,0.653,�k��,0.6,��
2020/08/26,06:30,0.710,1.016,0.642,1.245,0.901,0.399,0.697,0.654,-,CALM,��
2020/08/26,06:40,0.710,1.015,0.642,1.249,0.901,0.397,0.698,0.652,�k�k��,0.6,��
2020/08/26,06:50,0.710,1.016,0.641,1.249,0.900,0.398,0.699,0.652,�k�k��,0.9,��
2020/08/26,07:00,0.711,1.016,0.642,1.246,0.902,0.398,0.698,0.652,���쓌,0.9,��
2020/08/26,07:10,0.712,1.017,0.641,1.245,0.902,0.398,0.698,0.652,�쓌,0.9,��
2020/08/26,07:20,0.713,1.017,0.643,1.247,0.903,0.398,0.697,0.653,�쓌,1.5,��
2020/08/26,07:30,0.711,1.015,0.645,1.246,0.900,0.397,0.697,0.651,�쓌,1.9,��
2020/08/26,07:40,0.712,1.016,0.642,1.247,0.903,0.395,0.697,0.654,�쓌,2.3,��
2020/08/26,07:50,0.713,1.016,0.641,1.245,0.904,0.396,0.698,0.653,��쓌,1.9,��
2020/08/26,08:00,0.712,1.017,0.642,1.248,0.903,0.394,0.698,0.654,��쓌,1.5,��
2020/08/26,08:10,0.712,1.018,0.642,1.246,0.902,0.396,0.699,0.651,�쓌,2.0,��
2020/08/26,08:20,0.712,1.017,0.641,1.245,0.900,0.396,0.697,0.654,�쓌,1.5,��
2020/08/26,08:30,0.713,1.015,0.642,1.247,0.901,0.397,0.700,0.651,�쓌,2.0,��
2020/08/26,08:40,0.712,1.013,0.640,1.245,0.901,0.396,0.698,0.650,�쓌,2.3,��
2020/08/26,08:50,0.713,1.013,0.639,1.246,0.902,0.396,0.697,0.651,���쓌,2.2,��
2020/08/26,09:00,0.710,1.014,0.643,1.248,0.905,0.396,0.698,0.652,�쓌,3.0,��
2020/08/26,09:10,0.711,1.015,0.643,1.246,0.903,0.395,0.696,0.650,���쓌,2.3,��
2020/08/26,09:20,0.712,1.011,0.641,1.250,0.904,0.395,0.697,0.650,�쓌,3.0,��
2020/08/26,09:30,0.712,1.012,0.641,1.247,0.901,0.396,0.697,0.651,�쓌,2.6,��
2020/08/26,09:40,0.712,1.014,0.641,1.246,0.903,0.394,0.697,0.649,�쓌,2.5,��
2020/08/26,09:50,0.712,1.014,0.641,1.248,0.905,0.395,0.697,0.650,���쓌,3.5,��
2020/08/26,10:00,0.713,1.010,0.639,1.248,0.903,0.396,0.696,0.651,���쓌,3.1,��
2020/08/26,10:10,0.712,1.010,0.641,1.248,0.902,0.394,0.699,0.651,���쓌,3.0,��
2020/08/26,10:20,0.712,1.012,0.642,1.248,0.902,0.395,0.695,0.652,���쓌,3.5,��
2020/08/26,10:30,0.711,1.013,0.641,1.248,0.903,0.395,0.696,0.650,�쓌,3.8,��
2020/08/26,10:40,0.711,1.014,0.642,1.250,0.904,0.395,0.697,0.651,�쓌,4.0,��
2020/08/26,10:50,0.712,1.014,0.643,1.248,0.903,0.395,0.696,0.652,�쓌,3.2,��
2020/08/26,11:00,0.712,1.011,0.642,1.247,0.902,0.397,0.697,0.650,�쓌,3.4,��
2020/08/26,11:10,0.713,1.015,0.643,1.249,0.905,0.394,0.696,0.652,�쓌,4.7,��
2020/08/26,11:20,0.713,1.016,0.641,1.247,0.903,0.395,0.697,0.652,�쓌,4.3,��
2020/08/26,11:30,0.712,1.012,0.642,1.249,0.905,0.396,0.696,0.651,��쓌,4.6,��
2020/08/26,11:40,0.712,1.017,0.644,1.248,0.903,0.395,0.696,0.652,��쓌,5.7,��
2020/08/26,11:50,0.712,1.016,0.644,1.248,0.905,0.396,0.696,0.651,��쓌,5.6,��
2020/08/26,12:00,0.711,1.018,0.642,1.244,0.904,0.397,0.698,0.651,��쓌,6.0,��
2020/08/26,12:10,0.713,1.025,0.643,1.245,0.906,0.398,0.697,0.652,��쓌,6.2,��
2020/08/26,12:20,0.712,1.018,0.643,1.244,0.906,0.395,0.700,0.651,�쓌,5.9,��
2020/08/26,12:30,0.713,1.019,0.644,1.245,0.905,0.397,0.700,0.649,��쓌,6.4,��
2020/08/26,12:40,0.714,1.020,0.644,1.247,0.904,0.396,0.697,0.651,��쓌,6.4,��
2020/08/26,12:50,0.713,1.023,0.644,1.245,0.904,0.396,0.697,0.652,��쓌,7.2,��
2020/08/26,13:00,0.714,1.019,0.643,1.250,0.906,0.397,0.697,0.652,��쓌,6.2,��
2020/08/26,13:10,0.712,1.017,0.643,1.247,0.909,0.396,0.698,0.651,��쓌,6.4,��
2020/08/26,13:20,0.715,1.017,0.643,1.249,0.906,0.397,0.698,0.651,��쓌,5.9,��
2020/08/26,13:30,0.713,1.016,0.644,1.247,0.906,0.399,0.699,0.653,��쓌,6.0,��
2020/08/26,13:40,0.713,1.016,0.642,1.250,0.905,0.396,0.699,0.652,��쓌,5.9,��
2020/08/26,13:50,0.714,1.017,0.642,1.251,0.904,0.395,0.698,0.651,��쓌,6.8,��
2020/08/26,14:00,0.713,1.020,0.644,1.251,0.903,0.397,0.699,0.653,��쓌,7.1,��
2020/08/26,14:10,0.713,1.019,0.642,1.249,0.905,0.397,0.698,0.653,��쓌,6.4,��
2020/08/26,14:20,0.710,1.018,0.642,1.251,0.906,0.397,0.700,0.654,��쓌,6.6,��
2020/08/26,14:30,0.713,1.019,0.641,1.247,0.907,0.399,0.699,0.654,��쓌,6.5,��
2020/08/26,14:40,0.711,1.019,0.644,1.250,0.908,0.397,0.701,0.654,��쓌,6.6,��
2020/08/26,14:50,0.713,1.019,0.641,1.250,0.909,0.398,0.701,0.652,��쓌,6.3,��
2020/08/26,15:00,0.711,1.021,0.642,1.249,0.904,0.398,0.700,0.653,��쓌,6.6,��
2020/08/26,15:10,0.712,1.021,0.642,1.249,0.905,0.397,0.700,0.651,��쓌,5.6,��
2020/08/26,15:20,0.712,1.022,0.642,1.248,0.906,0.396,0.700,0.651,��쓌,6.2,��
2020/08/26,15:30,0.711,1.021,0.642,1.248,0.909,0.396,0.701,0.652,��쓌,6.4,��
2020/08/26,15:40,0.711,1.022,0.644,1.248,0.906,0.397,0.700,0.654,��쓌,6.1,��
2020/08/26,15:50,0.713,1.021,0.642,1.251,0.907,0.395,0.698,0.654,��쓌,6.2,��
2020/08/26,16:00,0.712,1.023,0.641,1.247,0.906,0.396,0.698,0.653,��쓌,5.1,��
2020/08/26,16:10,0.712,1.022,0.643,1.248,0.908,0.395,0.697,0.652,��쓌,5.9,��
2020/08/26,16:20,0.712,1.021,0.642,1.248,0.907,0.396,0.698,0.650,��쓌,5.7,��
2020/08/26,16:30,0.712,1.024,0.642,1.249,0.906,0.395,0.698,0.652,��쓌,5.3,��
2020/08/26,16:40,0.712,1.023,0.642,1.247,0.906,0.397,0.697,0.652,��쓌,5.4,��
2020/08/26,16:50,0.712,1.024,0.643,1.248,0.908,0.395,0.698,0.651,��쓌,5.0,��
2020/08/26,17:00,0.711,1.023,0.642,1.249,0.908,0.396,0.699,0.652,��쓌,5.9,��
2020/08/26,17:10,0.712,1.021,0.643,1.249,0.906,0.395,0.699,0.654,��쓌,5.7,��
2020/08/26,17:20,0.712,1.023,0.641,1.251,0.907,0.397,0.699,0.652,��쓌,5.9,��
2020/08/26,17:30,0.712,1.022,0.643,1.251,0.906,0.398,0.697,0.653,��쓌,5.2,��
2020/08/26,17:40,0.711,1.021,0.642,1.249,0.905,0.399,0.697,0.652,��쓌,5.4,��
2020/08/26,17:50,0.712,1.021,0.643,1.250,0.905,0.397,0.697,0.653,��쓌,6.6,��
2020/08/26,18:00,0.712,1.018,0.642,1.248,0.905,0.398,0.698,0.651,��쓌,7.1,��
2020/08/26,18:10,0.711,1.021,0.642,1.246,0.906,0.396,0.697,0.653,��쓌,6.0,��
2020/08/26,18:20,0.712,1.024,0.643,1.250,0.905,0.397,0.698,0.652,��쓌,6.4,��
2020/08/26,18:30,0.710,1.018,0.642,1.247,0.906,0.398,0.698,0.653,��,6.8,��
2020/08/26,18:40,0.710,1.017,0.640,1.250,0.906,0.398,0.699,0.652,��,6.5,��
2020/08/26,18:50,0.710,1.017,0.642,1.250,0.906,0.397,0.697,0.651,��,5.9,��
2020/08/26,19:00,0.711,1.012,0.642,1.248,0.908,0.397,0.697,0.652,��,5.9,��
2020/08/26,19:10,0.709,1.012,0.642,1.248,0.908,0.399,0.698,0.652,��,6.0,��
2020/08/26,19:20,0.710,1.018,0.643,1.247,0.907,0.399,0.697,0.651,��,5.5,��
2020/08/26,19:30,0.711,1.021,0.641,1.250,0.908,0.399,0.697,0.653,��,4.7,��
2020/08/26,19:40,0.711,1.022,0.643,1.249,0.907,0.399,0.697,0.651,��쓌,3.1,��
2020/08/26,19:50,0.710,1.023,0.644,1.250,0.906,0.399,0.698,0.651,��쓌,5.1,��
2020/08/26,20:00,0.712,1.022,0.643,1.249,0.907,0.397,0.698,0.651,��쓌,5.1,��
2020/08/26,20:10,0.711,1.023,0.644,1.250,0.907,0.399,0.697,0.652,��쓌,5.4,��
2020/08/26,20:20,0.711,0.988,0.643,1.248,0.908,0.398,0.699,0.651,��,5.5,��
2020/08/26,20:30,0.709,1.012,0.645,1.248,0.907,0.398,0.697,0.652,��,4.4,��
2020/08/26,20:40,0.709,1.017,0.644,1.252,0.906,0.399,0.697,0.652,��,4.8,��
2020/08/26,20:50,0.710,0.993,0.643,1.251,0.909,0.398,0.697,0.650,��,3.9,��
2020/08/26,21:00,0.709,1.019,0.644,1.250,0.907,0.398,0.698,0.652,��,3.9,��
2020/08/26,21:10,0.710,1.000,0.644,1.249,0.907,0.398,0.698,0.651,��,4.3,��
2020/08/26,21:20,0.711,1.016,0.644,1.251,0.907,0.397,0.698,0.652,��,4.2,��
2020/08/26,21:30,0.710,1.022,0.644,1.250,0.905,0.398,0.700,0.652,��,4.5,��
2020/08/26,21:40,0.710,1.023,0.644,1.250,0.904,0.398,0.698,0.653,��,4.6,��
2020/08/26,21:50,0.711,1.024,0.643,1.250,0.906,0.399,0.698,0.652,��,4.8,��
2020/08/26,22:00,0.712,1.022,0.644,1.252,0.908,0.397,0.697,0.651,��쐼,4.6,��
2020/08/26,22:10,0.712,1.025,0.643,1.250,0.907,0.398,0.697,0.651,��,4.9,��
2020/08/26,22:20,0.712,1.024,0.644,1.250,0.907,0.398,0.698,0.652,��,5.1,��
2020/08/26,22:30,0.710,1.023,0.645,1.251,0.908,0.399,0.699,0.652,��,4.1,��
2020/08/26,22:40,0.711,1.026,0.645,1.250,0.909,0.400,0.699,0.651,��,4.3,��
2020/08/26,22:50,0.711,1.024,0.645,1.249,0.905,0.400,0.700,0.652,��쐼,3.0,��
2020/08/26,23:00,0.712,1.024,0.645,1.252,0.909,0.398,0.699,0.653,��,3.7,��
2020/08/26,23:10,0.713,1.024,0.646,1.251,0.909,0.398,0.700,0.650,��,4.6,��
2020/08/26,23:20,0.714,1.024,0.646,1.251,0.909,0.398,0.700,0.652,��,4.2,��
2020/08/26,23:30,0.713,1.024,0.646,1.251,0.908,0.398,0.696,0.653,��,4.4,��
2020/08/26,23:40,0.711,1.026,0.647,1.253,0.909,0.399,0.698,0.652,��쓌,4.7,��
2020/08/26,23:50,0.712,1.024,0.645,1.252,0.907,0.399,0.698,0.653,��쓌,4.6,��
